Lid_Strength_Index
2 3 4 4 4 5 6 11 16 9 6 13 13 15 13 11 12 13 14 13 14 15 15 16 16 16 15 13 11 13 12 14 16 15 13 12 13 13 13 16 17 16 16 16
2 3 3 3 5 5 10 15 16 11 9 17 17 14 14 13 15 15 13 13 12 14 15 17 15 15 13 12 12 12 12 16 19 18 16 14 15 14 14 15 15 17 18 17
2 2 2 3 5 4 10 15 18 16 14 15 14 15 15 16 14 14 13 14 13 15 16 15 16 16 14 12 11 11 11 15 16 18 18 15 16 15 14 15 17 17 16 14
1 1 2 3 4 5 9 14 17 14 17 18 14 13 15 15 16 14 13 15 15 15 17 16 17 15 15 14 12 12 13 16 16 15 15 15 15 15 14 15 14 16 15 14
2 2 2 3 4 6 12 15 16 15 14 15 14 14 16 15 16 15 15 16 15 15 17 15 17 15 15 15 14 14 13 17 16 17 15 15 17 15 15 14 14 14 14 14
1 2 2 2 4 7 11 11 11 12 14 16 15 16 16 15 15 14 14 14 15 16 15 13 12 12 12 13 14 15 15 16 18 20 17 18 19 17 15 14 12 13 16 13
1 1 2 4 6 7 10 10 11 15 18 15 15 14 14 15 14 15 13 13 14 13 13 14 14 14 14 14 15 14 15 16 17 20 18 24 17 14 14 14 14 12 12 11
2 3 4 5 5 6 9 10 12 14 17 15 15 15 15 15 13 14 13 13 12 13 14 17 19 19 18 17 16 16 14 16 19 20 20 19 17 14 14 15 15 11 11 11
3 3 4 5 7 7 10 12 11 12 16 16 14 15 14 16 17 16 15 13 12 13 16 17 21 22 20 20 19 16 15 14 17 19 22 23 17 12 11 11 16 11 10 10
2 3 5 6 6 7 10 12 11 12 15 13 12 14 14 13 14 16 15 15 15 13 17 19 20 20 17 21 21 19 18 19 20 19 19 17 13 12 10 17 15 10 9 9
3 3 4 5 7 7 9 11 10 11 14 14 12 12 14 14 14 16 15 15 15 16 18 18 18 19 18 19 17 18 19 19 19 20 21 21 12 11 14 10 8 8 8 7
3 3 4 5 5 6 8 12 11 10 13 13 11 12 11 11 11 13 14 14 15 14 16 16 17 18 17 17 20 15 17 14 16 15 15 11 9 9 7 7 8 7 7 6
5 4 4 5 6 6 7 11 11 11 13 13 13 14 11 10 11 10 14 14 13 14 13 15 15 17 15 18 16 15 13 12 13 13 12 10 8 7 7 7 7 6 6 7
5 5 5 5 6 7 9 12 12 12 13 16 14 11 12 10 9 11 10 12 12 12 12 14 13 14 12 14 14 14 12 12 12 12 10 9 8 8 7 6 5 6 7 8
5 5 6 6 6 7 8 9 10 11 12 16 14 12 11 10 9 10 9 10 10 11 12 13 13 12 12 13 13 14 11 12 13 13 9 9 9 6 5 6 7 8 8 9
5 5 5 6 7 8 10 13 10 9 11 14 16 13 12 10 9 9 9 8 9 11 11 12 12 10 11 14 15 11 10 9 8 9 8 7 6 5 6 8 8 8 9 9
4 4 4 5 6 8 11 12 9 8 10 13 16 14 11 9 9 9 8 9 9 9 11 11 10 10 11 12 14 10 8 7 7 7 6 7 7 8 7 8 8 8 8 8
3 3 3 4 4 6 8 7 6 8 10 11 16 14 11 9 11 11 9 10 10 10 10 10 10 9 9 12 9 7 7 7 7 6 5 6 7 8 8 8 8 9 9 9
3 4 4 6 8 9 8 4 7 8 9 14 14 14 14 9 10 10 10 9 11 9 10 9 9 10 12 8 8 7 6 6 6 6 6 8 9 9 9 9 9 9 9 9
3 6 9 11 7 3 6 9 11 11 11 10 12 12 12 9 11 10 10 9 10 12 10 8 10 10 8 7 7 7 7 6 6 9 9 9 10 9 9 9 9 9 9 9
7 10 9 7 5 8 11 14 14 12 13 10 11 11 11 8 10 10 9 11 10 14 11 11 12 12 10 7 7 7 6 5 7 7 8 8 8 9 9 9 9 9 9 9
6 7 6 8 9 12 15 18 13 12 12 10 10 10 10 9 7 10 9 12 11 15 10 12 14 10 8 7 7 7 6 7 7 7 8 8 8 8 9 9 9 9 9 10
6 8 10 11 13 18 18 20 14 13 11 10 10 11 9 7 7 10 10 12 14 9 13 13 11 9 7 7 7 7 7 7 7 8 8 8 8 8 8 9 8 9 10 11
9 13 18 16 19 14 13 11 12 10 10 9 10 11 9 7 10 9 13 11 10 14 15 15 10 8 7 7 7 8 8 7 8 8 8 8 8 8 9 11 11 13 12 12
10 11 18 16 12 11 11 10 9 8 7 8 10 9 8 9 10 10 11 14 15 14 14 11 9 7 7 7 7 7 7 8 8 8 9 10 10 11 10 10 11 11 13 14
9 10 13 12 13 14 13 11 9 7 7 7 8 10 11 12 11 13 14 15 16 13 11 9 7 7 7 6 6 6 7 7 8 8 9 10 12 12 10 11 12 13 13 12
11 12 10 11 12 13 12 10 8 6 7 10 10 13 13 11 13 13 11 13 11 10 9 8 7 7 6 6 6 7 8 8 8 8 10 10 10 11 12 12 9 11 10 12